[[{"header":{"parameterUnit":"m.s-1","parameterCategory":1,"la1":30.2991,"la2":30.254,"lo1":-89.0895,"lo2":-89.0444,"dy":0.0017,"dx":0.0017,"nx":28,"ny":28,"refTime":"2025-02-28T03:00:00:Z","depth":0,"parameterNumber":2,"parameterNumberName":"U-component_of_WINDS"},"data":[0,0,0,0,0,0,0,0,0,0,0,0,0,0,0,0,0,0,0,0,0,0,0,0,0,0,0,0,0,0,0,0,0,0,0,0,0,0,0,0,0,0,0,0,0,0,0,0,0,0,0,0,0,0,0,0,0,0,0.0177,0.0177,0,0.0236,0.0237,0.0238,0.0273,0.0273,0.0273,0.0273,0.0335,0.0336,0.0338,0,0,0,0,0,0,0,0,0,0,0,0,0,0.0092,0.0093,0.0176,0.0177,0.0178,0.0236,0.0237,0.0238,0.0273,0.0273,0.0273,0.0273,0.0334,0.0336,0.0338,0,0,0,0,0,0,0,0,0,0,0,0,0,0.0138,0.0094,0.0176,0.0202,0.0205,0.0236,0.0237,0.0238,0.0273,0.0273,0.0273,0.0273,0.0334,0.0336,0.0338,0.0347,0,0,0.0345,0.0346,0,0,0,0,0,0,0,0,0.0135,0.0141,0.0198,0.0201,0.0204,0.0247,0.023,0.0275,0.0273,0.0247,0.0273,0.0274,0.0305,0.031,0.0321,0.035,0.0353,0.0345,0.0346,0.0347,0.0348,0,0,0,0,0,0,0,0.0132,0.0139,0.02,0.0199,0.0202,0.0211,0.0218,0.0238,0.0274,0.0249,0.0252,0.0259,0.0307,0.0318,0.0322,0.0354,0.0345,0.0347,0.0348,0.0349,0.0392,0.0392,0,0,0,0,0,0,0.0125,0.0136,0.0198,0.0202,0.017,0.0212,0.022,0.0233,0.0274,0.0281,0.0258,0.026,0.0315,0.032,0.0325,0.0337,0.0347,0.0349,0.0351,0.0393,0.0392,0.0392,0,0,0,0,0,0,0.0123,0.013,0.0196,0.017,0.0179,0.0213,0.0228,0.0234,0.0246,0.0281,0.0288,0.0263,0.0315,0.0322,0.0341,0.034,0.035,0.0352,0.0393,0.0393,0.0392,0.0363,0,0,0,0,0,0,0.012,0.0129,0.0133,0.0169,0.018,0.0211,0.0228,0.0235,0.0249,0.0252,0.0287,0.0294,0.0316,0.0338,0.0343,0.0343,0.0354,0.0393,0.0393,0.0392,0.0365,0.0362,0.036,0,0,0,0,0,0.0117,0.0123,0.0133,0.0141,0.0186,0.0211,0.0217,0.0242,0.0249,0.0253,0.0276,0.0292,0.0339,0.0339,0.0346,0.0347,0.0393,0.0393,0.0392,0.0366,0.0363,0.036,0,0,0,0,0,0,0.0086,0.0128,0.014,0.0158,0.0181,0.0217,0.0223,0.0239,0.026,0.0262,0.0292,0.03,0.0316,0.0334,0.0333,0.0357,0.0368,0.0369,0.0345,0.0343,0.0341,0.0336,0.0356,0,0,0,0,0,0.0081,0.0099,0.0135,0.0147,0.0158,0.0188,0.02,0.0218,0.0243,0.0252,0.0276,0.03,0.032,0.0332,0.0353,0.0367,0.0375,0.0371,0.0369,0.0367,0.0367,0.0375,0.0373,0.0391,0.0391,0.0391,0,0,0.0072,0.0097,0.0106,0.0141,0.0161,0.0178,0.0196,0.0214,0.0226,0.0255,0.0275,0.0293,0.0321,0.0338,0.0346,0.0353,0.0364,0.0366,0.0364,0.0366,0.0374,0.0372,0.0371,0.039,0.039,0.039,0,0,0.0063,0.0084,0.0096,0.0115,0.0144,0.0164,0.0167,0.0201,0.0214,0.0234,0.0256,0.0271,0.0305,0.0324,0.0338,0.0335,0.035,0.034,0.0328,0.0336,0.0334,0.0333,0.0331,0.033,0.0341,0.0341,0.0341,0,0.0047,0.0074,0.01,0.0116,0.013,0.0157,0.0169,0.0186,0.022,0.0229,0.0236,0.0278,0.0299,0.032,0.0319,0.033,0.0333,0.0336,0.0332,0.0332,0.0331,0.0329,0.0328,0.0339,0.0339,0.0339,0.034,0,0.0052,0.007,0.0076,0.0108,0.0124,0.0137,0.0165,0.0177,0.0193,0.0212,0.0232,0.0258,0.0283,0.0289,0.0305,0.0312,0.0315,0.0327,0.0338,0.0327,0.0326,0.0326,0.0337,0.0338,0.0338,0.0338,0,0,0.0026,0.0072,0.0074,0.0088,0.0122,0.0136,0.015,0.0175,0.0184,0.0207,0.0219,0.0247,0.0257,0.0273,0.0291,0.0297,0.0292,0.0308,0.0309,0.0303,0.03,0.029,0.0289,0.0302,0.0302,0.0302,0.0297,0,0.0022,0.0049,0.0073,0.0091,0.0108,0.0132,0.0145,0.0166,0.0185,0.0201,0.0221,0.0239,0.0252,0.0262,0.0269,0.0291,0.0291,0.0292,0.0314,0.0314,0.0305,0.0289,0.0279,0.0273,0.0297,0.0297,0.0297,0,0.0021,0.0041,0.0061,0.0092,0.01,0.0111,0.0134,0.015,0.0174,0.0187,0.0204,0.0222,0.0238,0.0248,0.027,0.0269,0.0279,0.0291,0.0292,0.0294,0.0304,0.029,0.0272,0.0271,0.0297,0.0297,0.0297,0,-0.0002,0.0032,0.0047,0.0059,0.0096,0.0102,0.0118,0.0143,0.0156,0.0176,0.0185,0.0207,0.0219,0.0236,0.026,0.0265,0.0279,0.0291,0.0289,0.0288,0.0291,0.029,0.0273,0.0298,0.0298,0.0298,0.0298,0,-0.0009,0.0002,0.0038,0.0048,0.006,0.0087,0.0099,0.0117,0.0138,0.0151,0.0174,0.0186,0.0217,0.0232,0.0251,0.0266,0.0271,0.0282,0.0286,0.0279,0.0278,0.0286,0.0287,0.0298,0.0298,0.0298,0.0298,0,-0.0032,-0.0007,0.0012,0.0045,0.0053,0.0061,0.0089,0.0099,0.0118,0.0134,0.0139,0.0169,0.0188,0.0213,0.0241,0.0253,0.0265,0.0273,0.0257,0.0259,0.0256,0.0256,0.0243,0.0243,0.0268,0.0268,0.0268,0,-0.0038,-0.0029,0.0004,0.0014,0.0029,0.0045,0.0058,0.0085,0.0097,0.0125,0.0131,0.0152,0.017,0.0199,0.0223,0.0244,0.0252,0.0246,0.0255,0.0247,0.0251,0.025,0.025,0.0244,0.0243,0.0243,0.0243,0,-0.0053,-0.0042,-0.0024,-0.0003,0.0012,0.003,0.005,0.0057,0.0087,0.01,0.0119,0.0133,0.016,0.018,0.0204,0.022,0.0236,0.024,0.024,0.0233,0.0223,0.0227,0.025,0.024,0.024,0.024,0.0241,0.0241,-0.0068,-0.006,-0.0035,-0.0017,0.0,0.0017,0.0028,0.0048,0.0065,0.0089,0.0103,0.0122,0.0145,0.0178,0.0193,0.0208,0.0214,0.0215,0.0215,0.0215,0.0212,0.022,0.0212,0.0212,0.0212,0.0213,0.0213,0,-0.0083,-0.0066,-0.0049,-0.0024,-0.0009,0.0005,0.0026,0.0037,0.0053,0.0074,0.009,0.0112,0.0131,0.0156,0.0177,0.0184,0.0192,0.0188,0.0188,0.0191,0.0206,0.0203,0.0181,0.0181,0.0181,0.0181,0.0181,0.0181,-0.0089,-0.0074,-0.006,-0.0037,-0.002,-0.0002,0.0009,0.0025,0.0041,0.0064,0.008,0.0096,0.0118,0.014,0.0158,0.0165,0.0171,0.0165,0.0174,0.0187,0.019,0.0193,0.019,0.0166,0.0166,0.0158,0.0158,0.0158]},{"header":{"parameterUnit":"m.s-1","parameterCategory":1,"la1":30.2991,"la2":30.254,"lo1":-89.0895,"lo2":-89.0444,"dy":0.0017,"dx":0.0017,"nx":28,"ny":28,"refTime":"2025-02-28T03:00:00:Z","depth":0,"parameterNumber":3,"parameterNumberName":"V-component_of_WINDS"},"data":[0,0,0,0,0,0,0,0,0,0,0,0,0,0,0,0,0,0,0,0,0,0,0,0,0,0,0,0,0,0,0,0,0,0,0,0,0,0,0,0,0,0,0,0,0,0,0,0,0,0,0,0,0,0,0,0,0,0,1.3099,1.3098,0,1.3038,1.3038,1.3037,1.3001,1.3001,1.3001,1.3001,1.2937,1.2936,1.2934,0,0,0,0,0,0,0,0,0,0,0,0,0,1.3181,1.318,1.3099,1.3098,1.3097,1.3039,1.3038,1.3037,1.3001,1.3001,1.3001,1.3001,1.2938,1.2936,1.2934,0,0,0,0,0,0,0,0,0,0,0,0,0,1.3136,1.3179,1.3099,1.3073,1.307,1.3039,1.3038,1.3037,1.3001,1.3001,1.3001,1.3001,1.2938,1.2936,1.2934,1.2924,0,0,1.2927,1.2926,0,0,0,0,0,0,0,0,1.3138,1.3133,1.3077,1.3074,1.3071,1.3027,1.3043,1.2999,1.3001,1.3027,1.3001,1.3001,1.2967,1.2962,1.2952,1.2921,1.2918,1.2926,1.2925,1.2924,1.2923,0,0,0,0,0,0,0,1.3141,1.3135,1.3075,1.3076,1.3073,1.3063,1.3056,1.3035,1.2999,1.3025,1.3022,1.3016,1.2965,1.2954,1.295,1.2917,1.2926,1.2924,1.2923,1.2922,1.2875,1.2875,0,0,0,0,0,0,1.3149,1.3138,1.3077,1.3073,1.3105,1.3062,1.3054,1.3041,1.2999,1.2993,1.3016,1.3014,1.2958,1.2953,1.2947,1.2933,1.2924,1.2922,1.292,1.2874,1.2875,1.2875,0,0,0,0,0,0,1.3151,1.3144,1.3079,1.3105,1.3096,1.3061,1.3047,1.304,1.3029,1.2993,1.2986,1.3011,1.2958,1.2951,1.293,1.293,1.2921,1.2919,1.2874,1.2874,1.2875,1.2903,0,0,0,0,0,0,1.3153,1.3145,1.3141,1.3105,1.3095,1.3064,1.3047,1.3039,1.3025,1.3022,1.2986,1.298,1.2957,1.2934,1.2928,1.2927,1.2917,1.2874,1.2874,1.2875,1.2902,1.2904,1.2906,0,0,0,0,0,1.3157,1.3151,1.3141,1.3134,1.3089,1.3064,1.3058,1.3032,1.3025,1.3021,1.2998,1.2981,1.2931,1.2932,1.2925,1.2923,1.2874,1.2874,1.2875,1.2901,1.2904,1.2906,0,0,0,0,0,0,1.3188,1.3146,1.3134,1.3118,1.3095,1.3058,1.3051,1.3036,1.3014,1.3012,1.2981,1.2973,1.2955,1.2937,1.2938,1.2911,1.2901,1.2899,1.2923,1.2926,1.2928,1.2932,1.2915,0,0,0,0,0,1.3193,1.3177,1.314,1.3129,1.3118,1.3087,1.3075,1.3057,1.3032,1.3021,1.2996,1.2972,1.295,1.2937,1.2915,1.29,1.2891,1.2895,1.2897,1.2899,1.2898,1.2887,1.2889,1.2876,1.2876,1.2876,0,0,1.3204,1.3179,1.317,1.3135,1.3115,1.3097,1.3079,1.3061,1.3048,1.3018,1.2997,1.2978,1.2949,1.293,1.2921,1.2915,1.29,1.2899,1.2901,1.2899,1.2888,1.2889,1.289,1.2876,1.2876,1.2876,0,0,1.3213,1.3193,1.3181,1.3161,1.3131,1.3111,1.3108,1.3073,1.306,1.3038,1.3016,1.2999,1.2963,1.2942,1.2927,1.2929,1.2913,1.2923,1.2934,1.2924,1.2925,1.2926,1.2926,1.2926,1.2922,1.2922,1.2922,0,1.3229,1.3203,1.3177,1.316,1.3145,1.3118,1.3106,1.3088,1.3052,1.3042,1.3036,1.299,1.2968,1.2944,1.2945,1.2934,1.2929,1.2927,1.2927,1.2927,1.2928,1.2927,1.2927,1.2924,1.2924,1.2924,1.2923,0,1.3224,1.3206,1.32,1.3167,1.3151,1.3136,1.3107,1.3094,1.3078,1.3058,1.3036,1.3009,1.2981,1.2974,1.2958,1.2947,1.2944,1.2933,1.2922,1.2931,1.293,1.293,1.2926,1.2925,1.2925,1.2925,0,0,1.3252,1.3204,1.3202,1.3187,1.3152,1.3137,1.3121,1.3094,1.3083,1.306,1.3045,1.3015,1.3004,1.2987,1.2969,1.296,1.2962,1.2949,1.2948,1.2952,1.2948,1.2957,1.2957,1.2951,1.2951,1.2951,1.2951,0,1.3256,1.3227,1.3202,1.3181,1.3164,1.3138,1.3124,1.3101,1.3081,1.3063,1.3041,1.302,1.3008,1.2997,1.2988,1.2964,1.2961,1.2964,1.2936,1.2936,1.2944,1.2957,1.2966,1.2967,1.295,1.295,1.295,0,1.3257,1.3234,1.3212,1.3179,1.317,1.3158,1.3131,1.3115,1.3087,1.3074,1.3055,1.3035,1.3016,1.3007,1.298,1.2983,1.297,1.2957,1.2956,1.2952,1.2943,1.2953,1.2966,1.2966,1.2949,1.2949,1.295,0,1.3278,1.3243,1.3225,1.3212,1.3173,1.3165,1.3148,1.312,1.3106,1.3082,1.3072,1.3047,1.3033,1.3013,1.2987,1.2983,1.2962,1.2951,1.295,1.295,1.2946,1.2947,1.2958,1.2939,1.2939,1.2939,1.2939,0,1.3285,1.3272,1.3234,1.3223,1.3208,1.3179,1.3165,1.3145,1.3121,1.3105,1.3081,1.3067,1.3033,1.3014,1.2994,1.2974,1.2968,1.2956,1.295,1.2958,1.2959,1.2948,1.2947,1.2939,1.2939,1.2939,1.2939,0,1.3307,1.3281,1.3259,1.3224,1.3214,1.3205,1.3174,1.3161,1.3141,1.3121,1.3114,1.3082,1.3058,1.303,1.2997,1.2983,1.2966,1.2958,1.2975,1.2972,1.2971,1.2972,1.2975,1.2974,1.2957,1.2957,1.2958,0,1.3313,1.3302,1.3266,1.3254,1.3237,1.3218,1.3203,1.3175,1.316,1.3128,1.312,1.3094,1.3073,1.3036,1.3009,1.2984,1.2975,1.2978,1.2971,1.2978,1.2974,1.2975,1.2973,1.298,1.298,1.298,1.298,0,1.3326,1.3313,1.3293,1.3268,1.3251,1.323,1.3207,1.3199,1.3166,1.315,1.3126,1.311,1.3076,1.3051,1.3023,1.3004,1.2986,1.2983,1.2981,1.2988,1.2998,1.2992,1.298,1.2983,1.2983,1.2982,1.2982,1.2982,1.3339,1.3328,1.3301,1.3279,1.3259,1.3239,1.3226,1.3203,1.3183,1.3154,1.3138,1.3115,1.3087,1.3046,1.3029,1.3009,1.3003,1.3,1.3,1.2999,1.3001,1.3002,1.3004,1.3004,1.3004,1.3004,1.3003,0,1.335,1.3331,1.3311,1.3281,1.3263,1.3249,1.3224,1.321,1.3189,1.3165,1.3145,1.3117,1.3092,1.3063,1.3037,1.3027,1.3018,1.3021,1.3021,1.3017,1.3009,1.3013,1.3028,1.3028,1.3028,1.3028,1.3028,1.3028,1.3354,1.3335,1.3319,1.329,1.3271,1.3248,1.3234,1.3215,1.3196,1.3166,1.3146,1.3127,1.3101,1.3072,1.3049,1.3041,1.3032,1.3037,1.3026,1.3019,1.3017,1.3015,1.3019,1.3035,1.3035,1.3036,1.3036,1.3036]}]]